XNO108 EGKK-EGCC

Flight info

Callsign XNO108
Flight time 0h 38m
Altitude 24000
Route LAM N57 WELIN T420 TNT DCT QUSHI DCT DAYNE
Aircraft RJ1H/M-SDFGIRWY/LB1

Departure

Time 2026-04-16 09:51
Airport London Gatwick Airport (EGKK)

Arrival

Time 2026-04-16 10:30
Airport Manchester Airport (EGCC)
Time Latitude Longitude Altitude Speed Heading
2026-04-16 09:21 51.16151 -0.18054 210 ft 0 kts 77°
2026-04-16 09:40 51.16149 -0.18070 204 ft 4 kts 77°
2026-04-16 09:41 51.16143 -0.18112 204 ft 4 kts 77°
2026-04-16 09:41 51.16138 -0.18153 209 ft 3 kts 85°
2026-04-16 09:41 51.16145 -0.18187 210 ft 3 kts 152°
2026-04-16 09:41 51.16163 -0.18195 211 ft 2 kts 167°
2026-04-16 09:42 51.16165 -0.18196 211 ft 5 kts 167°
2026-04-16 09:45 51.16164 -0.18196 211 ft 1 kts 167°
2026-04-16 09:46 51.16133 -0.18184 213 ft 8 kts 167°
2026-04-16 09:46 51.16057 -0.18157 210 ft 14 kts 167°
2026-04-16 09:46 51.15950 -0.18119 207 ft 16 kts 167°
2026-04-16 09:46 51.15840 -0.18081 204 ft 16 kts 167°
2026-04-16 09:47 51.15736 -0.18045 214 ft 14 kts 168°
2026-04-16 09:47 51.15704 -0.17928 207 ft 14 kts 77°
2026-04-16 09:47 51.15728 -0.17761 204 ft 16 kts 77°
2026-04-16 09:47 51.15752 -0.17588 210 ft 15 kts 78°
2026-04-16 09:48 51.15689 -0.17492 210 ft 15 kts 167°
2026-04-16 09:48 51.15575 -0.17452 211 ft 18 kts 167°
2026-04-16 09:48 51.15440 -0.17405 204 ft 20 kts 167°
2026-04-16 09:48 51.15315 -0.17360 204 ft 17 kts 167°
2026-04-16 09:49 51.15245 -0.17254 209 ft 15 kts 82°
2026-04-16 09:49 51.15266 -0.17093 208 ft 15 kts 77°
2026-04-16 09:49 51.15289 -0.16930 215 ft 15 kts 77°
2026-04-16 09:49 51.15271 -0.16829 207 ft 0 kts 153°
2026-04-16 09:50 51.15248 -0.16818 207 ft 7 kts 166°
2026-04-16 09:50 51.15177 -0.16793 206 ft 14 kts 172°
2026-04-16 09:50 51.15107 -0.16912 208 ft 18 kts 258°
2026-04-16 09:50 51.15098 -0.16980 212 ft 10 kts 258°
2026-04-16 09:51 51.15028 -0.17487 218 ft 81 kts 257°
2026-04-16 09:51 51.14866 -0.18662 212 ft 133 kts 257°
2026-04-16 09:51 51.14692 -0.20142 696 ft 141 kts 258°
2026-04-16 09:51 51.14525 -0.21704 1363 ft 144 kts 257°
2026-04-16 09:52 51.14310 -0.23375 1807 ft 164 kts 256°
2026-04-16 09:52 51.14070 -0.25213 2394 ft 174 kts 257°
2026-04-16 09:52 51.13960 -0.27201 2984 ft 190 kts 282°
2026-04-16 09:52 51.14814 -0.28975 3662 ft 221 kts 323°
2026-04-16 09:53 51.16377 -0.29757 3928 ft 249 kts 356°
2026-04-16 09:53 51.18034 -0.29067 3997 ft 248 kts 30°
2026-04-16 09:53 51.19191 -0.27078 4027 ft 248 kts 62°
2026-04-16 09:53 51.19975 -0.24650 4023 ft 251 kts 63°
2026-04-16 09:54 51.20571 -0.22061 4016 ft 248 kts 79°
2026-04-16 09:54 51.20880 -0.19297 4511 ft 252 kts 82°
2026-04-16 09:54 51.21151 -0.16579 5698 ft 250 kts 83°
2026-04-16 09:54 51.21203 -0.13802 6595 ft 253 kts 96°
2026-04-16 09:55 51.21343 -0.10981 7409 ft 259 kts 78°
2026-04-16 09:55 51.21763 -0.08154 8238 ft 265 kts 77°
2026-04-16 09:55 51.22200 -0.05267 9084 ft 270 kts 77°
2026-04-16 09:55 51.22784 -0.02402 9898 ft 275 kts 57°
2026-04-16 09:56 51.24141 -0.00290 10547 ft 279 kts 24°
2026-04-16 09:56 51.26021 0.00444 10898 ft 284 kts 353°
2026-04-16 09:56 51.27926 -0.00408 11480 ft 290 kts 325°
2026-04-16 09:56 51.29616 -0.02267 11930 ft 302 kts 320°
2026-04-16 09:57 51.31345 -0.04297 12333 ft 314 kts 319°
2026-04-16 09:57 51.33120 -0.06445 12726 ft 323 kts 319°
2026-04-16 09:57 51.34910 -0.08655 13275 ft 326 kts 318°
2026-04-16 09:57 51.36703 -0.10884 13836 ft 328 kts 318°
2026-04-16 09:58 51.38487 -0.13186 14329 ft 329 kts 315°
2026-04-16 09:58 51.40263 -0.15531 14780 ft 332 kts 318°
2026-04-16 09:58 51.42157 -0.17668 15219 ft 336 kts 323°
2026-04-16 09:58 51.44169 -0.19612 15651 ft 339 kts 326°
2026-04-16 09:59 51.46252 -0.21420 16089 ft 342 kts 327°
2026-04-16 09:59 51.48375 -0.23158 16490 ft 344 kts 328°
2026-04-16 09:59 51.50524 -0.24878 16914 ft 346 kts 328°
2026-04-16 09:59 51.51958 -0.26009 17199 ft 348 kts 328°
2026-04-16 10:00 51.54139 -0.27716 17617 ft 350 kts 328°
2026-04-16 10:00 51.56332 -0.29430 18026 ft 351 kts 328°
2026-04-16 10:00 51.58527 -0.31175 18483 ft 352 kts 328°
2026-04-16 10:01 51.62909 -0.34697 19194 ft 354 kts 327°
2026-04-16 10:01 51.65109 -0.36487 19417 ft 355 kts 328°
2026-04-16 10:01 51.68051 -0.38844 19839 ft 358 kts 328°
2026-04-16 10:01 51.69559 -0.40052 20050 ft 359 kts 328°
2026-04-16 10:02 51.71791 -0.41867 20361 ft 360 kts 327°
2026-04-16 10:02 51.74032 -0.43701 20682 ft 362 kts 327°
2026-04-16 10:02 51.76295 -0.45523 21068 ft 364 kts 328°
2026-04-16 10:02 51.78562 -0.47349 21370 ft 365 kts 328°
2026-04-16 10:03 51.80837 -0.49204 21689 ft 367 kts 327°
2026-04-16 10:03 51.83106 -0.51076 22062 ft 366 kts 327°
2026-04-16 10:03 51.85375 -0.52946 22334 ft 367 kts 327°
2026-04-16 10:03 51.87658 -0.54834 22602 ft 369 kts 327°
2026-04-16 10:04 51.89927 -0.56687 22873 ft 371 kts 327°
2026-04-16 10:04 51.92241 -0.58559 23150 ft 372 kts 327°
2026-04-16 10:04 51.94585 -0.60492 23423 ft 374 kts 327°
2026-04-16 10:04 51.96908 -0.62405 23685 ft 376 kts 327°
2026-04-16 10:05 51.99251 -0.64303 23915 ft 376 kts 327°
2026-04-16 10:05 52.01591 -0.66230 24053 ft 379 kts 327°
2026-04-16 10:05 52.03916 -0.68147 24102 ft 371 kts 327°
2026-04-16 10:05 52.06183 -0.70015 24126 ft 370 kts 327°
2026-04-16 10:06 52.08513 -0.71930 24125 ft 370 kts 327°
2026-04-16 10:06 52.10776 -0.73794 24125 ft 370 kts 327°
2026-04-16 10:06 52.13080 -0.75691 24126 ft 372 kts 327°
2026-04-16 10:06 52.15384 -0.77592 24124 ft 372 kts 327°
2026-04-16 10:07 52.17696 -0.79504 24123 ft 372 kts 327°
2026-04-16 10:07 52.20002 -0.81409 24119 ft 372 kts 327°
2026-04-16 10:07 52.22311 -0.83323 24117 ft 372 kts 327°
2026-04-16 10:07 52.24616 -0.85240 24111 ft 371 kts 326°
2026-04-16 10:08 52.26858 -0.87307 24113 ft 369 kts 323°
2026-04-16 10:08 52.29055 -0.89489 24128 ft 370 kts 322°
2026-04-16 10:08 52.31241 -0.91694 24108 ft 369 kts 322°
2026-04-16 10:08 52.33414 -0.93913 24088 ft 368 kts 322°
2026-04-16 10:09 52.35588 -0.96140 24085 ft 368 kts 322°
2026-04-16 10:09 52.37769 -0.98348 24078 ft 369 kts 322°
2026-04-16 10:09 52.39960 -1.00539 24082 ft 370 kts 322°
2026-04-16 10:09 52.42166 -1.02727 24083 ft 371 kts 322°
2026-04-16 10:10 52.44368 -1.04932 24086 ft 371 kts 322°
2026-04-16 10:10 52.46564 -1.07157 24085 ft 371 kts 322°
2026-04-16 10:10 52.48770 -1.09353 24088 ft 371 kts 322°
2026-04-16 10:10 52.50970 -1.11576 23926 ft 373 kts 322°
2026-04-16 10:11 52.53187 -1.13808 23630 ft 373 kts 322°
2026-04-16 10:11 52.55396 -1.16023 23209 ft 371 kts 322°
2026-04-16 10:11 52.57588 -1.18219 22819 ft 368 kts 322°
2026-04-16 10:11 52.59766 -1.20402 22415 ft 366 kts 322°
2026-04-16 10:12 52.61942 -1.22592 21944 ft 365 kts 322°
2026-04-16 10:12 52.64094 -1.24753 21479 ft 361 kts 322°
2026-04-16 10:12 52.66225 -1.26923 21016 ft 359 kts 322°
2026-04-16 10:12 52.68342 -1.29088 20559 ft 357 kts 322°
2026-04-16 10:13 52.70446 -1.31219 20252 ft 353 kts 322°
2026-04-16 10:13 52.72550 -1.33348 19673 ft 353 kts 322°
2026-04-16 10:13 52.74623 -1.35454 19301 ft 350 kts 322°
2026-04-16 10:13 52.76689 -1.37578 18965 ft 350 kts 322°
2026-04-16 10:14 52.78754 -1.39674 18583 ft 347 kts 322°
2026-04-16 10:14 52.80795 -1.41779 18168 ft 345 kts 322°
2026-04-16 10:14 52.82802 -1.43843 17745 ft 344 kts 322°
2026-04-16 10:14 52.84832 -1.45912 17303 ft 342 kts 322°
2026-04-16 10:15 52.86851 -1.47974 16892 ft 340 kts 322°
2026-04-16 10:15 52.88863 -1.50028 16473 ft 339 kts 322°
2026-04-16 10:15 52.90865 -1.52080 16080 ft 338 kts 322°
2026-04-16 10:15 52.92861 -1.54121 15676 ft 336 kts 322°
2026-04-16 10:16 52.94838 -1.56165 15279 ft 334 kts 322°
2026-04-16 10:16 52.96802 -1.58207 14889 ft 333 kts 322°
2026-04-16 10:16 52.98765 -1.60229 14494 ft 331 kts 322°
2026-04-16 10:16 53.00717 -1.62244 14157 ft 330 kts 322°
2026-04-16 10:17 53.02660 -1.64248 13856 ft 329 kts 322°
2026-04-16 10:17 53.04597 -1.66267 13418 ft 326 kts 320°
2026-04-16 10:17 53.06269 -1.68678 13005 ft 313 kts 308°
2026-04-16 10:17 53.07684 -1.71309 12587 ft 296 kts 306°
2026-04-16 10:18 53.09002 -1.73836 12170 ft 282 kts 305°
2026-04-16 10:18 53.10240 -1.76299 11734 ft 276 kts 304°
2026-04-16 10:18 53.11459 -1.78752 11326 ft 275 kts 304°
2026-04-16 10:18 53.12685 -1.81209 10937 ft 276 kts 304°
2026-04-16 10:19 53.13918 -1.83668 10544 ft 277 kts 305°
2026-04-16 10:19 53.15165 -1.86123 10144 ft 278 kts 305°
2026-04-16 10:19 53.16416 -1.88590 9739 ft 279 kts 305°
2026-04-16 10:19 53.17666 -1.91047 9314 ft 277 kts 305°
2026-04-16 10:20 53.18899 -1.93448 8878 ft 267 kts 306°
2026-04-16 10:20 53.20095 -1.95772 8437 ft 262 kts 305°
2026-04-16 10:20 53.21271 -1.98087 8022 ft 261 kts 305°
2026-04-16 10:20 53.22450 -2.00381 7615 ft 260 kts 306°
2026-04-16 10:21 53.23694 -2.02558 7236 ft 263 kts 319°
2026-04-16 10:21 53.25440 -2.03594 6857 ft 276 kts 353°
2026-04-16 10:21 53.27348 -2.02947 6501 ft 286 kts 17°
2026-04-16 10:21 53.29192 -2.01700 6221 ft 285 kts 18°
2026-04-16 10:22 53.31026 -2.00433 6000 ft 285 kts 19°
2026-04-16 10:22 53.32840 -1.99119 5610 ft 284 kts 19°
2026-04-16 10:22 53.34638 -1.97803 5111 ft 279 kts 20°
2026-04-16 10:22 53.36413 -1.96488 4623 ft 279 kts 20°
2026-04-16 10:23 53.38175 -1.95173 4213 ft 273 kts 20°
2026-04-16 10:23 53.39932 -1.93961 3928 ft 275 kts 10°
2026-04-16 10:23 53.41751 -1.94027 3659 ft 252 kts 334°
2026-04-16 10:23 53.43256 -1.95207 3545 ft 231 kts 327°
2026-04-16 10:24 53.44666 -1.96380 3496 ft 218 kts 327°
2026-04-16 10:24 53.45989 -1.97505 3495 ft 211 kts 324°
2026-04-16 10:24 53.46952 -1.99142 3490 ft 184 kts 284°
2026-04-16 10:24 53.47006 -2.01051 3518 ft 155 kts 263°
2026-04-16 10:25 53.46832 -2.02834 3556 ft 156 kts 250°
2026-04-16 10:25 53.46335 -2.04409 3558 ft 143 kts 240°
2026-04-16 10:25 53.45823 -2.05781 3333 ft 138 kts 238°
2026-04-16 10:25 53.45254 -2.07094 3145 ft 139 kts 234°
2026-04-16 10:26 53.44649 -2.08376 2954 ft 141 kts 232°
2026-04-16 10:26 53.44028 -2.09660 2729 ft 142 kts 232°
2026-04-16 10:26 53.43401 -2.10939 2575 ft 144 kts 231°
2026-04-16 10:26 53.42772 -2.12214 2365 ft 139 kts 231°
2026-04-16 10:27 53.42160 -2.13483 2177 ft 140 kts 231°
2026-04-16 10:27 53.41563 -2.14716 1998 ft 134 kts 231°
2026-04-16 10:27 53.40977 -2.15939 1826 ft 136 kts 230°
2026-04-16 10:27 53.40397 -2.17128 1614 ft 125 kts 230°
2026-04-16 10:28 53.39855 -2.18240 1469 ft 122 kts 231°
2026-04-16 10:28 53.39333 -2.19330 1335 ft 120 kts 231°
2026-04-16 10:28 53.38812 -2.20407 1176 ft 116 kts 231°
2026-04-16 10:28 53.38312 -2.21435 967 ft 111 kts 231°
2026-04-16 10:29 53.37823 -2.22433 826 ft 111 kts 231°
2026-04-16 10:29 53.37339 -2.23442 703 ft 111 kts 230°
2026-04-16 10:29 53.36849 -2.24445 523 ft 115 kts 230°
2026-04-16 10:29 53.36339 -2.25502 365 ft 114 kts 232°
2026-04-16 10:30 53.35865 -2.26483 266 ft 102 kts 231°
2026-04-16 10:30 53.35513 -2.27215 255 ft 65 kts 231°
2026-04-16 10:30 53.35335 -2.27585 250 ft 26 kts 232°
2026-04-16 10:30 53.35261 -2.27859 240 ft 26 kts 258°
2026-04-16 10:31 53.35234 -2.28118 237 ft 13 kts 261°
2026-04-16 10:31 53.35265 -2.28218 236 ft 10 kts
2026-04-16 10:31 53.35314 -2.28151 238 ft 9 kts 44°
2026-04-16 10:31 53.35364 -2.28070 241 ft 12 kts 44°
2026-04-16 10:32 53.35431 -2.27961 244 ft 15 kts 44°
2026-04-16 10:32 53.35459 -2.27815 247 ft 12 kts 88°
2026-04-16 10:32 53.35501 -2.27700 250 ft 12 kts 51°
2026-04-16 10:32 53.35549 -2.27601 253 ft 11 kts 51°
2026-04-16 10:33 53.35599 -2.27499 255 ft 11 kts 51°
2026-04-16 10:33 53.35665 -2.27362 254 ft 19 kts 51°
2026-04-16 10:33 53.35748 -2.27190 255 ft 18 kts 51°
2026-04-16 10:33 53.35819 -2.27024 255 ft 17 kts 62°
2026-04-16 10:34 53.35881 -2.26876 255 ft 13 kts 50°
2026-04-16 10:34 53.35957 -2.26847 255 ft 11 kts 358°
2026-04-16 10:34 53.36003 -2.26832 255 ft 7 kts 327°
2026-04-16 10:34 53.36030 -2.26878 255 ft 2 kts 315°
2026-04-16 10:35 53.36030 -2.26879 255 ft 0 kts 315°